[[{"header":{"parameterUnit":"m.s-1","parameterCategory":1,"la1":30.2991,"la2":30.254,"lo1":-89.0895,"lo2":-89.0444,"dy":0.0017,"dx":0.0017,"nx":28,"ny":28,"refTime":"2024-07-04T03:00:00:Z","depth":0,"parameterNumber":2,"parameterNumberName":"U-component_of_WINDS"},"data":[0,0,0,0,0,0,0,0,0,0,0,0,0,0,0,0,0,0,0,0,0,0,0,0,0,0,0,0,0,0,0,0,0,0,0,0,0,0,0,0,0,0,0,0,0,0,0,0,0,0,0,0,0,0,0,0,0,0,4.612,4.6122,0,4.6276,4.6278,4.6279,4.6182,4.6177,4.6173,4.6168,4.6331,4.634,4.6348,0,0,0,0,0,0,0,0,0,0,0,0,0,4.5738,4.5746,4.612,4.6122,4.6124,4.6276,4.6278,4.628,4.6183,4.6177,4.6172,4.6166,4.6329,4.6339,4.6349,0,0,0,0,0,0,0,0,0,0,0,0,0,4.59,4.5748,4.6119,4.6093,4.6093,4.6275,4.6278,4.628,4.6184,4.6177,4.617,4.6164,4.6325,4.6338,4.6351,4.6569,0,0,4.639,4.6396,0,0,0,0,0,0,0,0,4.5891,4.5915,4.6095,4.6095,4.6095,4.6202,4.6203,4.6377,4.6186,4.6149,4.6168,4.616,4.6294,4.6309,4.6354,4.6576,4.6583,4.6391,4.6399,4.6405,4.6408,0,0,0,0,0,0,0,4.588,4.5907,4.6181,4.6098,4.6098,4.6074,4.609,4.6236,4.6259,4.6152,4.6145,4.6165,4.6293,4.6342,4.6357,4.6586,4.6391,4.6402,4.641,4.6415,4.6992,4.6999,0,0,0,0,0,0,4.5871,4.5899,4.6177,4.6186,4.5974,4.6087,4.6104,4.6175,4.6257,4.6263,4.6171,4.616,4.6323,4.6342,4.6362,4.6621,4.6405,4.6417,4.6424,4.6985,4.6994,4.7002,0,0,0,0,0,0,4.5863,4.5897,4.617,4.6041,4.6074,4.6101,4.6181,4.6182,4.623,4.6271,4.6275,4.6216,4.6318,4.6344,4.6517,4.6626,4.6423,4.6434,4.6976,4.6987,4.6998,4.7142,0,0,0,0,0,0,4.5852,4.5894,4.5977,4.6043,4.6081,4.6323,4.6188,4.619,4.6252,4.624,4.6315,4.632,4.6315,4.6498,4.653,4.664,4.6444,4.6966,4.6981,4.6994,4.7128,4.7157,4.7182,0,0,0,0,0,4.5839,4.6013,4.5982,4.6016,4.6185,4.6329,4.6351,4.634,4.6262,4.6345,4.6371,4.6318,4.6609,4.6517,4.6552,4.6667,4.6959,4.6977,4.6993,4.7116,4.7151,4.7181,0,0,0,0,0,0,4.5961,4.6021,4.5988,4.6188,4.6254,4.6312,4.6418,4.6378,4.6469,4.6454,4.6437,4.6455,4.6635,4.6668,4.6565,4.6881,4.6772,4.6796,4.6853,4.6887,4.6914,4.6902,4.6455,0,0,0,0,0,4.6011,4.6122,4.6169,4.6341,4.6376,4.6391,4.6454,4.6439,4.6507,4.6535,4.6574,4.6643,4.6749,4.682,4.692,4.7132,4.7146,4.7228,4.7255,4.7277,4.7299,4.7412,4.7448,4.7058,4.7058,4.7057,0,0,4.6115,4.6162,4.6234,4.6366,4.6416,4.6532,4.6416,4.6543,4.6629,4.6555,4.672,4.6751,4.6827,4.7019,4.7106,4.7053,4.741,4.7299,4.7316,4.7326,4.7433,4.747,4.7503,4.7069,4.7067,4.7065,0,0,4.6365,4.6412,4.6559,4.6611,4.6686,4.6695,4.6731,4.6795,4.6812,4.6977,4.6923,4.7025,4.721,4.7265,4.7318,4.7586,4.754,4.7619,4.7761,4.7871,4.7902,4.7929,4.8023,4.8058,4.7641,4.7641,4.7641,0,4.6486,4.6657,4.664,4.6772,4.6831,4.6768,4.6917,4.6968,4.7073,4.7116,4.7054,4.7282,4.7329,4.7533,4.7598,4.7643,4.7683,4.7611,4.7898,4.7925,4.7951,4.8041,4.8076,4.765,4.7649,4.7648,4.7647,0,4.6801,4.6921,4.7031,4.7132,4.7204,4.7344,4.7348,4.7423,4.7402,4.7418,4.7586,4.7639,4.7749,4.7796,4.7778,4.7997,4.7961,4.79,4.7789,4.7997,4.8081,4.8116,4.7663,4.766,4.7657,4.7655,0,0,4.7133,4.7221,4.7262,4.7306,4.7384,4.7477,4.7613,4.7719,4.7783,4.7857,4.7971,4.8127,4.8069,4.8129,4.8116,4.8213,4.842,4.8139,4.814,4.8188,4.8664,4.871,4.875,4.839,4.8397,4.8402,4.8657,0,4.7386,4.7623,4.7611,4.7833,4.7943,4.7883,4.8001,4.8062,4.808,4.8176,4.8195,4.8306,4.8222,4.8257,4.835,4.8375,4.8515,4.8357,4.8496,4.8501,4.8478,4.8794,4.8844,4.9082,4.869,4.8696,4.87,0,4.7713,4.7797,4.803,4.8089,4.8135,4.8242,4.8336,4.8429,4.8496,4.8502,4.8567,4.8538,4.8676,4.8561,4.875,4.8643,4.8699,4.8719,4.8728,4.8741,4.8613,4.8815,4.9158,4.9194,4.8752,4.8748,4.8744,0,4.793,4.8101,4.8262,4.8302,4.8376,4.8452,4.8487,4.8547,4.8611,4.8694,4.8734,4.8833,4.8887,4.8964,4.8962,4.8879,4.9153,4.9039,4.9162,4.9162,4.9222,4.9218,4.9579,4.926,4.9259,4.9258,4.9257,0,4.8214,4.8359,4.836,4.8459,4.8619,4.8603,4.8762,4.8789,4.8843,4.8945,4.89,4.8998,4.899,4.9088,4.9088,4.9243,4.9269,4.9277,4.9275,4.9281,4.928,4.9317,4.9301,4.9268,4.9266,4.9264,4.9262,0,4.8484,4.8491,4.8662,4.8717,4.8734,4.885,4.8897,4.8991,4.9003,4.9134,4.9164,4.9185,4.9298,4.9303,4.9435,4.9434,4.9624,4.9604,4.9601,4.9597,4.9719,4.9707,5.0116,5.0168,4.9815,4.9819,4.9821,0,4.8664,4.8774,4.884,4.8905,4.8944,4.9049,4.9113,4.9102,4.917,4.9254,4.9338,4.9447,4.9533,4.9717,4.9744,4.9844,4.9826,4.9962,4.9841,4.9842,4.9827,4.982,4.983,4.9986,4.999,4.9993,4.9995,0,4.8983,4.8981,4.9074,4.9169,4.9246,4.932,4.9389,4.9445,4.9442,4.9521,4.9636,4.9703,4.9835,4.9944,5.004,5.0076,5.0036,5.0033,5.0067,5.0074,5.0067,5.0071,4.9665,5.0024,5.0021,5.0019,5.0018,5.0016,4.9213,4.9307,4.9368,4.9473,4.9523,4.9588,4.9678,4.9701,4.9796,4.9902,4.989,5.0018,5.008,5.0206,5.0249,5.0349,5.0302,5.0351,5.0363,5.0375,5.0387,5.0051,5.0366,5.0365,5.0365,5.0364,5.0363,0,4.9529,4.9564,4.9661,4.9758,4.9841,4.9794,4.9867,4.9939,5.0051,5.0113,5.0198,5.0329,5.0434,5.0469,5.057,5.0643,5.0627,5.067,5.0664,5.0673,5.0424,5.0384,5.0681,5.0681,5.0681,5.0681,5.0681,5.068,4.9703,4.9858,4.9863,5.0042,5.0077,5.02,5.0246,5.0305,5.0354,5.0502,5.0588,5.0609,5.066,5.0764,5.0858,5.0865,5.0904,5.0955,5.0955,5.0722,5.069,5.066,5.0622,5.0964,5.0964,5.1195,5.1197,5.1199]},{"header":{"parameterUnit":"m.s-1","parameterCategory":1,"la1":30.2991,"la2":30.254,"lo1":-89.0895,"lo2":-89.0444,"dy":0.0017,"dx":0.0017,"nx":28,"ny":28,"refTime":"2024-07-04T03:00:00:Z","depth":0,"parameterNumber":3,"parameterNumberName":"V-component_of_WINDS"},"data":[0,0,0,0,0,0,0,0,0,0,0,0,0,0,0,0,0,0,0,0,0,0,0,0,0,0,0,0,0,0,0,0,0,0,0,0,0,0,0,0,0,0,0,0,0,0,0,0,0,0,0,0,0,0,0,0,0,0,5.8077,5.8078,0,5.8199,5.82,5.8202,5.8165,5.8162,5.816,5.8157,5.8276,5.8282,5.8287,0,0,0,0,0,0,0,0,0,0,0,0,0,5.7805,5.781,5.8077,5.8079,5.808,5.8199,5.82,5.8202,5.8165,5.8162,5.8159,5.8156,5.8275,5.8281,5.8288,0,0,0,0,0,0,0,0,0,0,0,0,0,5.7925,5.7812,5.8077,5.8076,5.8077,5.8198,5.82,5.8202,5.8166,5.8162,5.8158,5.8155,5.8272,5.828,5.8289,5.8416,0,0,5.8314,5.8318,0,0,0,0,0,0,0,0,5.7918,5.7935,5.8075,5.8076,5.8078,5.8163,5.8148,5.8274,5.8167,5.8132,5.8157,5.8153,5.8241,5.8252,5.8283,5.8422,5.8427,5.8315,5.832,5.8323,5.8326,0,0,0,0,0,0,0,5.791,5.7929,5.8125,5.8077,5.8079,5.8067,5.808,5.8172,5.8206,5.8135,5.8132,5.8148,5.8241,5.8275,5.8285,5.8429,5.8315,5.8322,5.8327,5.833,5.8674,5.8678,0,0,0,0,0,0,5.7901,5.7922,5.8121,5.8129,5.7987,5.8075,5.809,5.8139,5.8205,5.8212,5.8151,5.8145,5.8263,5.8276,5.829,5.8441,5.8323,5.8331,5.8336,5.867,5.8675,5.8679,0,0,0,0,0,0,5.7895,5.7919,5.8116,5.8025,5.8049,5.8084,5.814,5.8144,5.8177,5.8217,5.8223,5.8179,5.826,5.8278,5.8384,5.8444,5.8335,5.8342,5.8665,5.8671,5.8677,5.8746,0,0,0,0,0,0,5.7888,5.7917,5.7968,5.8027,5.8054,5.8212,5.8144,5.8149,5.8193,5.8187,5.8246,5.8252,5.8259,5.8372,5.8393,5.8454,5.8349,5.866,5.8668,5.8675,5.8738,5.8754,5.8767,0,0,0,0,0,5.7878,5.7982,5.7971,5.7995,5.8119,5.8215,5.8231,5.8239,5.8198,5.8247,5.8272,5.825,5.8435,5.8384,5.8406,5.8471,5.8656,5.8665,5.8675,5.8732,5.8751,5.8766,0,0,0,0,0,0,5.7929,5.799,5.7978,5.8105,5.8155,5.8209,5.8272,5.8259,5.832,5.8312,5.8317,5.8331,5.8439,5.8466,5.8408,5.8596,5.8539,5.8553,5.8575,5.8593,5.8607,5.8597,5.8356,0,0,0,0,0,5.7955,5.803,5.8079,5.8185,5.8212,5.8238,5.828,5.8281,5.8333,5.8354,5.8387,5.8436,5.8505,5.8551,5.8616,5.8742,5.8752,5.8797,5.8811,5.8823,5.8835,5.89,5.8919,5.871,5.871,5.871,0,0,5.8009,5.8052,5.8099,5.8197,5.8236,5.8311,5.8256,5.8339,5.8394,5.8366,5.8469,5.8494,5.8549,5.8665,5.8718,5.8691,5.8895,5.8835,5.8844,5.8849,5.8911,5.8931,5.8949,5.8716,5.8715,5.8714,0,0,5.8146,5.8187,5.8279,5.832,5.838,5.8397,5.8419,5.8475,5.8491,5.8594,5.8574,5.8638,5.8758,5.8797,5.8833,5.8982,5.8962,5.9003,5.9077,5.914,5.9157,5.9171,5.9222,5.9241,5.9015,5.9015,5.9015,0,5.8205,5.832,5.8328,5.8412,5.8454,5.8434,5.8525,5.8563,5.8642,5.867,5.8639,5.8786,5.8822,5.8946,5.8982,5.9012,5.9035,5.8996,5.9154,5.9169,5.9183,5.9231,5.925,5.902,5.9019,5.9019,5.9018,0,5.8389,5.8468,5.8535,5.8612,5.8662,5.8749,5.8768,5.8816,5.8813,5.8831,5.8935,5.8977,5.905,5.9079,5.9077,5.9202,5.9182,5.9153,5.9096,5.9207,5.9252,5.9271,5.9026,5.9025,5.9023,5.9022,0,0,5.8562,5.8641,5.8665,5.8699,5.8763,5.8823,5.8908,5.8981,5.9021,5.9075,5.9145,5.9245,5.9218,5.9258,5.9259,5.9315,5.9427,5.9278,5.9279,5.9302,5.9564,5.9585,5.9607,5.9415,5.9418,5.9421,5.9559,0,5.8703,5.8854,5.8862,5.8999,5.9071,5.9051,5.9124,5.917,5.9189,5.9251,5.9271,5.9341,5.9301,5.9324,5.9379,5.9402,5.9479,5.9392,5.9476,5.9479,5.9462,5.9631,5.9654,5.9782,5.9577,5.958,5.9582,0,5.8888,5.8948,5.9092,5.9144,5.9174,5.924,5.9306,5.9366,5.9416,5.9426,5.947,5.9463,5.9546,5.9487,5.96,5.9541,5.9575,5.9591,5.9596,5.9604,5.9537,5.964,5.9823,5.9842,5.9611,5.9608,5.9606,0,5.8997,5.9114,5.9215,5.9244,5.9308,5.9354,5.9382,5.9429,5.9471,5.9527,5.9554,5.9619,5.9654,5.9703,5.9712,5.9669,5.9825,5.9767,5.9833,5.9833,5.9866,5.9864,6.0055,5.9891,5.9891,5.9891,5.989,0,5.9152,5.9241,5.9264,5.9326,5.9423,5.943,5.9525,5.9549,5.9591,5.9655,5.9641,5.9701,5.971,5.9771,5.9778,5.9869,5.9886,5.9894,5.9894,5.9894,5.9893,5.9916,5.9907,5.9896,5.9895,5.9894,5.9893,0,5.929,5.931,5.9418,5.9469,5.9484,5.9553,5.9595,5.9652,5.9669,5.975,5.9769,5.9796,5.9867,5.9881,5.9964,5.9969,6.0077,6.0069,6.0061,6.0059,6.0124,6.0117,6.0335,6.0363,6.0183,6.0185,6.0186,0,5.9388,5.9455,5.9513,5.9556,5.9586,5.9655,5.9698,5.9707,5.9751,5.9812,5.9862,5.9931,5.9988,6.0101,6.0126,6.0189,6.0182,6.0254,6.0191,6.0188,6.018,6.0176,6.0181,6.0266,6.0268,6.0269,6.0271,0,5.9558,5.9564,5.9627,5.9694,5.9745,5.9798,5.9847,5.9882,5.9897,5.9947,6.002,6.0064,6.0149,6.0217,6.028,6.0306,6.029,6.029,6.0308,6.0308,6.03,6.0303,6.0092,6.0285,6.0283,6.0282,6.0282,6.0281,5.9677,5.9735,5.9785,5.9855,5.9893,5.9939,5.9995,6.0019,6.0081,6.0152,6.0152,6.0231,6.0276,6.0359,6.0389,6.0449,6.0426,6.0453,6.0459,6.0465,6.047,6.0291,6.046,6.046,6.046,6.0459,6.0459,0,5.9845,5.9875,5.994,6.0009,6.0064,6.0046,6.0099,6.0145,6.0215,6.026,6.0315,6.0397,6.0463,6.0493,6.0557,6.0599,6.0593,6.0615,6.0611,6.0617,6.0489,6.0466,6.0618,6.0618,6.0618,6.0618,6.0618,6.0618,5.9938,6.0034,6.0046,6.0159,6.0189,6.0267,6.0299,6.034,6.0375,6.0468,6.0523,6.0543,6.058,6.0646,6.0704,6.0711,6.0734,6.076,6.0763,6.0642,6.0626,6.0611,6.0589,6.0765,6.0765,6.0886,6.0887,6.0887]}]]